Back to catalog

SL-16 R/B

AliveLEO
NORAD 22220·ROCKET BODY·🇷🇺 Russia

Launched Nov 17, 1992 from Baikonur Cosmodrome

Loading…

Next Passes (next 24 hours)

TLE

FreshSource: Space-Track

Epoch: Sep 14, 2026, 10:19 UTC

1 22220U 92076B   26257.43000959  .00000159  00000-0  10315-3 0  9992
2 22220  71.0001 150.7890 0012505 177.1891 356.0778 14.16880143748568

Track SL-16 R/B in real time with AllMySat

Download on the App Store